K5NCO Weather Reports


time (UTC)temp
C
wind
direction
speed
KPH
gust
KPH
rain 1hr
cm
rain 24hr
cm
rain mn
cm
humidity
%
barometer
mb
20260510060354 23 101 6.4 6.4 0.00 0.00 0.00 76 1012.5
20260510055850 23 94 9.7 11.3 0.00 0.00 0.00 75 1012.4
20260510055349 23 181 3.2 3.2 0.00 0.00 0.00 75 1012.6
20260510054843 23 91 3.2 3.2 0.00 0.00 0.00 75 1012.7
20260510054339 23 165 8.0 11.3 0.00 0.00 0.00 75 1012.7
20260510053833 23 134 9.7 12.9 0.00 0.00 0.00 76 1012.4
20260510053329 23 166 3.2 3.2 0.00 0.00 0.00 76 1012.6
20260510052826 24 131 3.2 4.8 0.00 0.00 0.00 76 1012.5
20260510052322 24 127 1.6 3.2 0.00 0.00 0.00 77 1012.6
20260510051818 24 91 3.2 3.2 0.00 0.00 0.00 77 1012.6
20260510051315 24 97 6.4 6.4 0.00 0.00 0.00 78 1012.6
20260510050812 24 121 3.2 3.2 0.00 0.00 0.00 78 1012.7
20260510050309 24 87 1.6 3.2 0.00 0.00 0.00 78 1012.6
20260510045806 24 147 3.2 4.8 0.00 0.00 0.00 78 1012.6
20260510045305 24 81 3.2 3.2 0.00 0.00 0.00 79 1012.3
20260510044759 24 116 6.4 6.4 0.00 0.00 0.00 79 1012.4
20260510044256 24 93 3.2 4.8 0.00 0.00 0.00 80 1012.4
20260510043752 24 109 1.6 1.6 0.00 0.00 0.00 82 1012.6
20260510043243 25 92 4.8 4.8 0.00 0.00 0.00 82 1012.7
20260510042740 25 100 6.4 9.7 0.00 0.00 0.00 81 1012.4
20260510042230 25 69 3.2 3.2 0.00 0.00 0.00 82 1012.5
20260510041727 25 84 0.0 1.6 0.00 0.00 0.00 81 1012.5
20260510041225 25 111 1.6 3.2 0.00 0.00 0.00 81 1012.5
20260510040721 25 87 4.8 4.8 0.00 0.00 0.00 81 1012.5
20260510040218 25 91 3.2 4.8 0.00 0.00 0.00 80 1012.3
20260510035713 25 138 3.2 3.2 0.00 0.00 0.00 80 1012.4
20260510035210 25 132 3.2 3.2 0.00 0.00 0.00 80 1012.4
20260510034705 25 101 3.2 3.2 0.00 0.00 0.00 80 1012.4
20260510034203 25 104 4.8 4.8 0.00 0.00 0.00 80 1012.3
20260510033659 25 118 1.6 3.2 0.00 0.00 0.00 79 1012.3
20260510033158 25 134 3.2 4.8 0.00 0.00 0.00 79 1012.1
20260510032653 25 99 3.2 4.8 0.00 0.00 0.00 79 1012.2
20260510032149 26 111 3.2 4.8 0.00 0.00 0.00 79 1012.2
20260510031643 26 99 6.4 9.7 0.00 0.00 0.00 78 1012.1
20260510031140 26 143 3.2 3.2 0.00 0.00 0.00 78 1012.0
20260510030635 26 114 3.2 4.8 0.00 0.00 0.00 78 1011.9
20260510030133 26 104 6.4 9.7 0.00 0.00 0.00 78 1011.8
20260510025630 26 81 3.2 3.2 0.00 0.00 0.00 77 1011.8
20260510025127 26 78 4.8 6.4 0.00 0.00 0.00 77 1011.6
20260510024624 26 110 1.6 1.6 0.00 0.00 0.00 76 1011.6
20260510024121 26 101 4.8 4.8 0.00 0.00 0.00 76 1011.6
20260510023616 26 138 11.3 12.9 0.00 0.00 0.00 75 1011.4
20260510023113 27 148 1.6 3.2 0.00 0.00 0.00 73 1011.6
20260510022608 27 86 4.8 4.8 0.00 0.00 0.00 72 1011.5
20260510022102 27 68 3.2 4.8 0.00 0.00 0.00 71 1011.2
20260510021559 27 127 6.4 9.7 0.00 0.00 0.00 70 1011.1
20260510021056 27 136 1.6 1.6 0.00 0.00 0.00 68 1011.0
20260510020550 27 144 1.6 3.2 0.00 0.00 0.00 67 1010.8
20260510020046 27 125 3.2 3.2 0.00 0.00 0.00 67 1010.7
20260510015542 27 142 4.8 4.8 0.00 0.00 0.00 66 1010.8
20260510015038 27 135 1.6 1.6 0.00 0.00 0.00 66 1010.7
20260510014535 28 105 3.2 4.8 0.00 0.00 0.00 65 1010.7
20260510014032 28 153 3.2 3.2 0.00 0.00 0.00 64 1010.9
20260510013526 28 130 3.2 3.2 0.00 0.00 0.00 64 1010.8
20260510013022 28 137 3.2 3.2 0.00 0.00 0.00 63 1010.6
20260510012522 28 118 3.2 3.2 0.00 0.00 0.00 63 1010.6
20260510012019 28 125 3.2 3.2 0.00 0.00 0.00 62 1010.7
20260510011518 28 99 3.2 4.8 0.00 0.00 0.00 61 1010.4
20260510011013 28 143 4.8 6.4 0.00 0.00 0.00 61 1010.6
20260510010511 28 116 4.8 4.8 0.00 0.00 0.00 60 1010.6
20260510010008 29 103 6.4 9.7 0.00 0.00 0.00 60 1010.5
20260510005503 29 99 4.8 6.4 0.00 0.00 0.00 60 1010.4
20260510005001 29 94 6.4 9.7 0.00 0.00 0.00 60 1010.4
20260510004458 29 87 6.4 9.7 0.00 0.00 0.00 59 1010.3
20260510003957 29 84 6.4 9.7 0.00 0.00 0.00 58 1010.3
20260510003453 29 105 8.0 9.7 0.00 0.00 0.00 58 1010.4
20260510002948 29 97 6.4 6.4 0.00 0.00 0.00 58 1010.3
20260510002444 30 122 8.0 11.3 0.00 0.00 0.00 58 1010.2
20260510001941 30 106 11.3 14.5 0.00 0.00 0.00 57 1010.2
20260510001438 30 86 6.4 6.4 0.00 0.00 0.00 57 1010.2
20260510000936 30 81 6.4 11.3 0.00 0.00 0.00 57 1010.0
20260510000433 30 108 6.4 9.7 0.00 0.00 0.00 56 1010.1
20260509235928 30 107 9.7 11.3 0.00 0.00 0.00 57 1010.1
20260509235426 30 152 3.2 4.8 0.00 0.00 0.00 57 1009.8
20260509234922 30 124 4.8 4.8 0.00 0.00 0.00 56 1010.0
20260509234419 30 98 3.2 6.4 0.00 0.00 0.00 56 1009.8
20260509233917 30 66 0.0 0.0 0.00 0.00 0.00 56 1009.8
20260509233414 30 169 8.0 9.7 0.00 0.00 0.00 56 1009.8
20260509232910 30 131 6.4 6.4 0.00 0.00 0.00 56 1009.8
20260509232408 30 119 6.4 9.7 0.00 0.00 0.00 56 1009.8
20260509231903 30 36 0.0 0.0 0.00 0.00 0.00 55 1009.6
20260509231400 30 94 6.4 9.7 0.00 0.00 0.00 56 1009.7
20260509230859 30 131 9.7 12.9 0.00 0.00 0.00 56 1009.7
20260509230355 31 123 6.4 6.4 0.00 0.00 0.00 56 1009.8
20260509225851 30 59 6.4 6.4 0.00 0.00 0.00 55 1009.7
20260509225348 31 134 6.4 9.7 0.00 0.00 0.00 54 1009.7
20260509224843 30 82 9.7 11.3 0.00 0.00 0.00 55 1009.7
20260509224339 30 86 3.2 4.8 0.00 0.00 0.00 55 1009.9
20260509223837 30 152 6.4 9.7 0.00 0.00 0.00 54 1009.8
20260509223333 30 92 9.7 12.9 0.00 0.00 0.00 56 1009.7
20260509222830 30 81 6.4 6.4 0.00 0.00 0.00 57 1009.7
20260509222326 30 94 11.3 12.9 0.00 0.00 0.00 55 1009.8
20260509221821 30 126 4.8 4.8 0.00 0.00 0.00 55 1009.7
20260509221319 30 72 3.2 3.2 0.00 0.00 0.00 55 1009.8
20260509220814 30 146 8.0 11.3 0.00 0.00 0.00 55 1009.7
20260509220310 30 82 6.4 9.7 0.00 0.00 0.00 54 1009.7
20260509215806 30 122 8.0 11.3 0.00 0.00 0.00 53 1009.8
20260509215306 30 121 8.0 12.9 0.00 0.00 0.00 53 1009.9
20260509214800 31 132 12.9 14.5 0.00 0.00 0.00 53 1009.8
20260509214257 31 91 8.0 11.3 0.00 0.00 0.00 50 1010.0
20260509213754 31 119 11.3 12.9 0.00 0.00 0.00 51 1010.0
20260509213249 32 68 6.4 12.9 0.00 0.00 0.00 51 1009.9
20260509212747 31 187 0.0 0.0 0.00 0.00 0.00 48 1010.0
20260509212244 31 40 0.0 1.6 0.00 0.00 0.00 49 1010.1
20260509211745 31 349 3.2 3.2 0.00 0.00 0.00 53 1010.1
20260509211241 30 12 3.2 4.8 0.00 0.00 0.00 52 1010.3
20260509210738 31 339 6.4 9.7 0.00 0.00 0.00 51 1010.3
20260509210236 30 221 0.0 0.0 0.00 0.00 0.00 54 1010.4
20260509205735 30 352 3.2 3.2 0.00 0.00 0.00 51 1010.5
20260509205236 30 117 0.0 1.6 0.00 0.00 0.00 55 1010.6
20260509204732 30 206 0.0 0.0 0.00 0.00 0.00 51 1010.4
20260509204228 30 53 4.8 4.8 0.00 0.00 0.00 49 1010.8
20260509203724 29 101 4.8 6.4 0.00 0.00 0.00 48 1010.6
20260509203223 30 53 3.2 6.4 0.00 0.00 0.00 50 1010.8
20260509202718 29 72 6.4 6.4 0.00 0.00 0.00 47 1010.7
20260509202214 29 129 4.8 6.4 0.00 0.00 0.00 49 1011.0
20260509201709 28 116 8.0 11.3 0.00 0.00 0.00 52 1011.3
20260509201206 28 121 11.3 16.1 0.00 0.00 0.00 54 1011.4
20260509200702 27 95 17.7 20.9 0.00 0.00 0.00 54 1011.5
20260509200157 27 92 12.9 16.1 0.00 0.00 0.00 52 1011.8
20260509195653 27 118 9.7 12.9 0.00 0.00 0.00 49 1011.8
20260509195149 27 84 9.7 17.7 0.00 0.00 0.00 48 1012.0
20260509194643 27 177 9.7 12.9 0.00 0.00 0.00 52 1011.9
20260509194141 27 168 12.9 22.5 0.00 0.00 0.00 60 1011.8
20260509193636 28 194 11.3 16.1 0.00 0.00 0.00 59 1011.8
20260509193132 30 262 0.0 1.6 0.00 0.00 0.00 64 1011.7
20260509192629 30 351 1.6 4.8 0.00 0.00 0.00 65 1011.5
20260509192123 30 42 4.8 6.4 0.00 0.00 0.00 65 1011.4
20260509191618 30 314 1.6 3.2 0.00 0.00 0.00 66 1011.4
20260509191115 29 274 4.8 4.8 0.00 0.00 0.00 66 1011.4
20260509190611 29 308 14.5 17.7 0.00 0.00 0.00 66 1011.4
20260509190109 29 25 3.2 6.4 0.00 0.00 0.00 68 1011.4
20260509185606 30 354 3.2 6.4 0.00 0.00 0.00 69 1011.5
20260509185102 29 330 11.3 12.9 0.00 0.00 0.00 71 1011.6
20260509184601 28 320 16.1 17.7 0.00 0.00 0.00 70 1011.7
20260509184057 29 308 6.4 9.7 0.00 0.00 0.00 68 1011.7
20260509183552 30 333 11.3 12.9 0.00 0.00 0.00 67 1011.8
20260509183048 30 247 0.0 1.6 0.00 0.00 0.00 66 1012.0
20260509182545 30 292 6.4 9.7 0.00 0.00 0.00 67 1011.9
20260509182042 29 279 1.6 1.6 0.00 0.00 0.00 68 1012.1
20260509181540 30 329 4.8 6.4 0.00 0.00 0.00 68 1012.2
20260509181037 30 287 6.4 9.7 0.00 0.00 0.00 66 1012.1
20260509180532 30 334 1.6 1.6 0.00 0.00 0.00 68 1012.4
20260509180030 28 299 1.6 1.6 0.00 0.00 0.00 70 1012.5
20260509175525 28 319 3.2 3.2 0.00 0.00 0.00 70 1012.2
20260509175017 29 265 3.2 3.2 0.00 0.00 0.00 69 1012.3
20260509174513 28 191 1.6 1.6 0.00 0.00 0.00 72 1012.4
20260509174009 28 186 0.0 1.6 0.00 0.00 0.00 73 1012.3
20260509173503 28 224 9.7 9.7 0.00 0.00 0.00 73 1012.5
20260509173000 28 255 3.2 4.8 0.00 0.00 0.00 75 1012.5
20260509172457 28 241 6.4 6.4 0.00 0.00 0.00 74 1012.7
20260509171952 27 281 4.8 4.8 0.00 0.00 0.00 75 1012.7
20260509171449 28 25 0.0 1.6 0.00 0.00 0.00 75 1012.6
20260509170945 28 282 6.4 6.4 0.00 0.00 0.00 74 1012.9
20260509170441 28 199 3.2 4.8 0.00 0.00 0.00 73 1012.8
20260509165937 28 213 6.4 6.4 0.00 0.00 0.00 75 1013.0
20260509165436 28 270 11.3 12.9 0.00 0.00 0.00 74 1013.0
20260509164932 28 222 0.0 0.0 0.00 0.00 0.00 74 1012.9
20260509164428 28 242 6.4 6.4 0.00 0.00 0.00 77 1012.8
20260509163924 28 310 0.0 1.6 0.00 0.00 0.00 77 1012.7
20260509163422 27 243 4.8 6.4 0.00 0.00 0.00 78 1013.0
20260509162920 27 227 9.7 11.3 0.00 0.00 0.00 78 1013.0
20260509162419 26 303 6.4 6.4 0.00 0.00 0.00 80 1013.0
20260509161915 26 312 4.8 4.8 0.00 0.00 0.00 82 1013.1
20260509161411 27 293 3.2 3.2 0.00 0.00 0.00 81 1012.9
20260509160907 26 237 0.0 0.0 0.00 0.00 0.00 82 1012.8
20260509160403 26 228 9.7 11.3 0.00 0.00 0.00 81 1012.8
20260509155858 26 213 6.4 9.7 0.00 0.00 0.00 84 1012.7
20260509155355 26 199 8.0 12.9 0.00 0.00 0.00 85 1012.7
20260509154851 26 170 12.9 16.1 0.00 0.00 0.00 85 1012.7
20260509154348 26 196 11.3 12.9 0.00 0.00 0.00 85 1012.7
20260509153845 25 157 12.9 12.9 0.00 0.00 0.00 87 1012.9
20260509153342 25 206 6.4 9.7 0.00 0.00 0.00 88 1012.8
20260509152839 25 238 4.8 6.4 0.00 0.00 0.00 88 1012.8
20260509152334 25 161 11.3 14.5 0.00 0.00 0.00 89 1012.5
20260509151832 25 162 9.7 11.3 0.00 0.00 0.00 88 1012.3
20260509151328 25 151 14.5 20.9 0.00 0.00 0.00 88 1012.0
20260509150827 25 190 9.7 14.5 0.00 0.00 0.00 88 1012.1
20260509150324 25 185 12.9 16.1 0.00 0.00 0.00 88 1012.2
20260509145821 25 203 9.7 14.5 0.00 0.00 0.00 89 1012.3
20260509145316 25 234 9.7 12.9 0.00 0.00 0.00 88 1012.4
20260509144812 25 155 12.9 16.1 0.00 0.00 0.00 88 1012.3
20260509144309 25 145 9.7 12.9 0.00 0.00 0.00 88 1012.2
20260509143806 25 176 6.4 9.7 0.00 0.00 0.00 88 1012.5
20260509143258 25 249 8.0 11.3 0.00 0.00 0.00 87 1012.1
20260509142754 26 157 8.0 9.7 0.00 0.00 0.00 86 1011.9
20260509142250 26 103 6.4 9.7 0.00 0.00 0.00 85 1011.8
20260509141746 26 173 3.2 4.8 0.00 0.00 0.00 85 1012.2
20260509141243 25 97 1.6 4.8 0.00 0.00 0.00 87 1011.8
20260509140740 25 172 6.4 9.7 0.00 0.00 0.00 88 1011.6
20260509140237 25 149 4.8 6.4 0.00 0.00 0.00 88 1011.6
20260509135734 25 184 9.7 11.3 0.00 0.00 0.00 88 1011.7
20260509135232 24 181 6.4 6.4 0.00 0.00 0.00 90 1011.2
20260509134729 24 192 12.9 17.7 0.00 0.00 0.00 90 1011.5
20260509134226 24 193 6.4 6.4 0.00 0.00 0.00 91 1011.7
20260509133724 23 259 9.7 12.9 0.00 0.00 0.00 92 1011.8
20260509133220 23 184 8.0 9.7 0.00 0.00 0.00 93 1011.9
20260509132719 23 194 9.7 11.3 0.00 0.00 0.00 94 1011.8
20260509132217 23 207 6.4 9.7 0.00 0.00 0.00 95 1011.9
20260509131713 22 177 8.0 9.7 0.00 0.00 0.00 96 1012.0
20260509131210 22 177 3.2 4.8 0.00 0.00 0.00 97 1012.0
20260509130706 22 164 6.4 6.4 0.00 0.00 0.00 98 1012.1
20260509130202 22 176 9.7 11.3 0.00 0.00 0.00 99 1012.2
20260509125658 22 193 3.2 3.2 0.00 0.00 0.00 99 1012.4
20260509125155 22 172 1.6 3.2 0.00 0.00 0.00 99 1012.2
20260509124652 22 237 0.0 1.6 0.00 0.00 0.00 99 1012.3
20260509124149 22 214 1.6 3.2 0.00 0.00 0.00 99 1012.3
20260509123647 22 218 0.0 0.0 0.00 0.00 0.00 99 1012.3
20260509123144 22 262 0.0 0.0 0.00 0.00 0.00 99 1012.2
20260509122639 21 318 0.0 1.6 0.00 0.00 0.00 99 1012.2
20260509122136 21 293 3.2 3.2 0.00 0.00 0.00 99 1011.9
20260509121633 21 330 1.6 3.2 0.00 0.00 0.00 99 1011.9
20260509121131 21 331 0.0 0.0 0.00 0.00 0.00 99 1012.1
20260509120628 21 264 3.2 4.8 0.00 0.00 0.00 99 1012.1
20260509120127 21 304 1.6 1.6 0.00 0.00 0.00 99 1012.2
20260509115623 21 348 4.8 6.4 0.00 0.00 0.00 99 1012.4
20260509115121 21 64 0.0 0.0 0.00 0.00 0.00 99 1012.0
20260509114619 21 126 1.6 1.6 0.00 0.00 0.00 99 1012.1
20260509114118 21 148 3.2 3.2 0.00 0.00 0.00 99 1012.4
20260509113616 22 147 1.6 3.2 0.00 0.00 0.00 99 1012.7
20260509113113 22 340 0.0 0.0 0.00 0.00 0.00 99 1012.8
20260509112609 22 357 0.0 1.6 0.00 0.00 0.00 99 1013.0
20260509112106 22 11 0.0 0.0 0.00 0.00 0.00 99 1013.1
20260509111603 22 328 6.4 6.4 0.00 0.00 0.00 99 1013.2
20260509111100 22 317 4.8 6.4 0.00 0.00 0.00 99 1013.4
20260509110557 22 294 4.8 4.8 0.00 0.00 0.00 99 1013.4
20260509110054 22 332 3.2 4.8 0.00 0.00 0.00 99 1013.5
20260509105553 22 323 1.6 1.6 0.00 0.00 0.00 99 1013.5
20260509105050 21 341 3.2 3.2 0.00 0.00 0.00 99 1013.5
20260509104547 21 326 3.2 3.2 0.00 0.00 0.00 99 1013.5
20260509104043 21 303 1.6 1.6 0.00 0.00 0.00 99 1013.4
20260509103541 21 334 4.8 4.8 0.00 0.00 0.00 99 1013.6
20260509103039 21 334 4.8 6.4 0.00 0.00 0.00 99 1013.5
20260509102536 21 331 0.0 0.0 0.00 0.00 0.00 99 1013.4
20260509102033 21 308 0.0 0.0 0.00 0.00 0.00 99 1013.6
20260509101529 21 324 1.6 3.2 0.00 0.00 0.00 99 1013.2
20260509101026 21 331 1.6 3.2 0.00 0.00 0.00 99 1013.2
20260509100523 21 5 1.6 3.2 0.00 0.00 0.00 99 1012.9
20260509100021 21 344 3.2 3.2 0.00 0.00 0.00 99 1012.9
20260509095517 21 117 0.0 0.0 0.00 0.00 0.00 99 1012.5
20260509095015 21 117 0.0 0.0 0.00 0.00 0.00 99 1012.4
20260509094511 21 117 0.0 0.0 0.00 0.00 0.00 99 1012.2
20260509094008 21 117 0.0 0.0 0.00 0.00 0.00 99 1012.1
20260509093506 21 117 0.0 0.0 0.00 0.00 0.00 99 1011.9
20260509093004 21 117 0.0 0.0 0.00 0.00 0.00 99 1011.8
20260509092501 21 201 0.0 0.0 0.00 0.00 0.00 99 1011.9
20260509092000 21 201 0.0 0.0 0.00 0.00 0.00 99 1011.8
20260509091456 21 201 0.0 1.6 0.00 0.00 0.00 99 1011.8
20260509090953 21 130 0.0 0.0 0.00 0.00 0.00 99 1011.7
20260509090451 21 131 0.0 0.0 0.00 0.00 0.00 99 1011.6
20260509085948 21 126 0.0 0.0 0.00 0.00 0.00 99 1011.7
20260509085444 21 73 0.0 0.0 0.00 0.00 0.00 99 1011.7
20260509084940 21 62 0.0 0.0 0.00 0.00 0.00 99 1012.0
20260509084432 21 63 0.0 0.0 0.00 0.00 0.00 99 1012.1
20260509083930 21 63 0.0 0.0 0.00 0.00 0.00 99 1012.2
20260509083427 21 89 1.6 1.6 0.00 0.00 0.00 99 1012.2
20260509082924 21 174 0.0 0.0 0.00 0.00 0.00 99 1012.5
20260509082421 21 140 1.6 1.6 0.00 0.00 0.00 99 1012.4
20260509081917 21 94 1.6 1.6 0.00 0.00 0.00 99 1012.1
20260509081415 21 86 0.0 0.0 0.00 0.00 0.00 99 1012.1
20260509080912 21 31 0.0 0.0 0.00 0.00 0.00 99 1012.0
20260509080410 21 70 0.0 1.6 0.00 0.00 0.00 99 1012.2
20260509075908 21 38 0.0 0.0 0.00 0.00 0.00 99 1012.4
20260509075405 21 25 0.0 0.0 0.00 0.00 0.00 99 1012.5
20260509074902 22 45 0.0 0.0 0.00 0.00 0.00 99 1012.4
20260509074400 22 22 0.0 0.0 0.00 0.00 0.00 99 1012.4
20260509073856 22 73 1.6 3.2 0.00 0.00 0.00 99 1012.4
20260509073353 22 68 0.0 0.0 0.00 0.00 0.00 99 1012.6
20260509072849 22 67 0.0 0.0 0.00 0.00 0.00 99 1012.5
20260509072346 22 74 0.0 1.6 0.00 0.00 0.00 98 1012.7
20260509071842 22 52 0.0 0.0 0.00 0.00 0.00 98 1012.6
20260509071339 22 55 0.0 1.6 0.00 0.00 0.00 98 1012.9
20260509070837 22 112 1.6 3.2 0.00 0.00 0.00 98 1012.8
20260509070333 22 115 3.2 3.2 0.00 0.00 0.00 98 1012.9
20260509065830 22 81 0.0 0.0 0.00 0.00 0.00 98 1012.8
20260509065326 22 81 0.0 0.0 0.00 0.00 0.00 98 1012.5
20260509064822 22 79 1.6 3.2 0.00 0.00 0.00 98 1012.6
20260509064320 22 74 0.0 1.6 0.00 0.00 0.00 97 1012.6
20260509063817 22 110 1.6 3.2 0.00 0.00 0.00 97 1012.4
20260509063313 22 107 3.2 3.2 0.00 0.00 0.00 97 1012.9
20260509062810 22 117 4.8 6.4 0.00 0.00 0.00 97 1012.7
20260509062308 22 96 3.2 4.8 0.00 0.00 0.00 96 1012.5
20260509061804 22 116 4.8 6.4 0.00 0.00 0.00 96 1012.3
20260509061302 22 116 4.8 6.4 0.00 0.00 0.00 95 1012.2
20260509060759 22 137 6.4 6.4 0.00 0.00 0.00 95 1012.2